Location: Unspecified
(0.0000°N, 0.0000°E)
Time: 17:34:07
(UTC+00:00)

Tiangong 1 - Visible Passes

Search period start: 24 May 2017 00:00
Search period end: 03 June 2017 00:00
Orbit: 323 x 350 km, 42.8° (Epoch: 24 May)

Date Brightness Start Highest point End Pass type
(mag) Time Alt. Az. Time Alt. Az. Time Alt. Az.
24 May 2.8 19:18:07 10° W 19:20:23 21° SW 19:20:46 20° SSW visible
26 May 2.8 05:25:39 10° SSW 05:28:01 24° SE 05:30:25 10° ENE visible
26 May 3.1 18:23:54 10° W 18:26:07 20° SW 18:28:21 10° S visible
28 May 2.5 04:33:24 25° SE 04:33:37 25° SE 04:36:00 10° ENE visible
29 May 1.3 04:53:28 36° W 04:54:04 43° NW 04:56:45 10° NNE visible
